This is the latest recevied weather packets stored in our database for station/object OE-11179. If no packets are shown the sender has not sent any weather packets the latest 10 day(s).
| Time | Temp. | Humidity | Pressure | Rain* | Wind** | Luminosity | Snow |
|---|---|---|---|---|---|---|---|
| 1788005504 | 20° C | 56% | - | 0 mm | - | - | - |
| 1788005132 | 19.44° C | 57% | - | 0 mm | - | - | - |
| 1788004532 | 19.44° C | 60% | - | 0 mm | - | - | - |
| 1788003705 | 19.44° C | 63% | - | 0 mm | - | - | - |
| 1788003332 | 19.44° C | 65% | - | 0 mm | - | - | - |
| 1788002732 | 19.44° C | 59% | - | 0 mm | - | - | - |
| 1788001905 | 19.44° C | 61% | - | 0 mm | - | - | - |
| 1788001531 | 18.33° C | 63% | - | 0 mm | - | - | - |
| 1788000932 | 18.33° C | 67% | - | 0 mm | - | - | - |
| 1788000105 | 17.78° C | 66% | - | 0 mm | - | - | - |
| 1787999732 | 17.78° C | 71% | - | 0 mm | - | - | - |
| 1787999132 | 17.78° C | 70% | - | 0 mm | - | - | - |
| 1787998305 | 17.78° C | 70% | - | 0 mm | - | - | - |
| 1787997931 | 16.67° C | 75% | - | 0 mm | - | - | - |
| 1787997332 | 16.67° C | 75% | - | 0 mm | - | - | - |
| 1787996505 | 16.67° C | 77% | - | 0 mm | - | - | - |
| 1787996132 | 16.11° C | 79% | - | 0 mm | - | - | - |
| 1787995532 | 16.11° C | 81% | - | 0 mm | - | - | - |
| 1787994705 | 15.56° C | 82% | - | 0 mm | - | - | - |
| 1787994332 | 15.56° C | 83% | - | 0 mm | - | - | - |
| 1787993732 | 15° C | 88% | - | 0 mm | - | - | - |
| 1787992904 | 15° C | 89% | - | 0.25 mm | - | - | - |
| 1787992531 | 15° C | 92% | - | 1.02 mm | - | - | - |
| 1787991932 | 14.44° C | 92% | - | 1.52 mm | - | - | - |
| 1787991105 | 13.89° C | 91% | - | 2.03 mm | - | - | - |
* Rain latest hour (hover to see other rain measurements)
** Current wind speed in m/s (hover to see current wind gust speed)